Ketchikan, AK

9:36 AM AKST on November 13, 2018 (GMT -0900)
Ketchikan International

Weather History for PAKT - August, 2018

Change the Weather History Date:

Wednesday, August 29, 2018

  Actual Average Record
Temperature  
Mean Temperature 58 °F -  
Max Temperature 62 °F 63 °F 81 °F (1967)
Min Temperature 55 °F 49 °F 41 °F (1998)
Degree Days  
Heating Degree Days 8    
Growing Degree Days 8 (Base 50)    
Moisture  
Dew Point 53 °F    
Average Humidity 88    
Maximum Humidity 96    
Minimum Humidity 77    
Precipitation  
Precipitation 0.02 in - - ()
Sea Level Pressure  
Sea Level Pressure 29.89 in    
Wind  
Wind Speed 5 mph (SE)    
Max Wind Speed 8 mph    
Max Gust Speed -    
Visibility 10 miles    
Events Rain    
Averages and records for this station are not official NWS values.
T = Trace of Precipitation, MM = Missing Value Source: NWS Daily Summary

Daily Weather History Graph

Daily Weather History Graph

Search for Another Location

Airport or City:

Astronomy

Aug. 29, 2018 Rise Set
Actual Time 5:47 AM AKDT 7:46 PM AKDT
Civil Twilight 5:07 AM AKDT 8:25 PM AKDT
Nautical Twilight 4:18 AM AKDT 9:15 PM AKDT
Astronomical Twilight 3:20 AM AKDT 10:12 PM AKDT
Moon 9:16 PM AKDT (8/29) 9:12 AM AKDT (8/29)
Length of Visible Light 15h 18m
Length of Day
13h 59m
Waning Gibbous, 89% of the Moon is Illuminated
Aug 29
Waning Gibbous
Sep 2
Last Quarter
Sep 9
New
Sep 16
First Quarter
Sep 24
Full

Hourly Weather History & Observations

Time (AKDT) Temp. Dew Point Humidity Pressure Visibility Wind Dir Wind Speed Gust Speed Precip Events Conditions
12:53 AM 55.9 °F 54.0 °F 93% 29.88 in 10.0 mi SE 8.1 mph - 0.00 in   Overcast
1:53 AM 55.9 °F 54.0 °F 93% 29.88 in 10.0 mi ESE 4.6 mph - 0.00 in   Overcast
2:53 AM 55.9 °F 54.0 °F 93% 29.88 in 9.0 mi ESE 5.8 mph - 0.01 in   Overcast
3:53 AM 55.0 °F 53.1 °F 93% 29.87 in 10.0 mi SSE 4.6 mph - N/A   Overcast
4:20 AM 55.0 °F 53.1 °F 93% 29.87 in 10.0 mi SSE 3.5 mph - N/A   Overcast
4:53 AM 55.0 °F 53.1 °F 93% 29.87 in 10.0 mi SE 3.5 mph - N/A   Overcast
5:53 AM 55.0 °F 53.1 °F 93% 29.87 in 10.0 mi South 3.5 mph - N/A   Overcast
6:04 AM 55.0 °F 53.1 °F 93% 29.86 in 10.0 mi Calm Calm - N/A   Overcast
6:53 AM 55.9 °F 53.1 °F 90% 29.87 in 10.0 mi South 3.5 mph - N/A   Overcast
7:48 AM 55.4 °F 53.6 °F 94% 29.86 in 10.0 mi ESE 5.8 mph - N/A   Overcast
7:53 AM 55.9 °F 53.1 °F 90% 29.86 in 10.0 mi SE 5.8 mph - N/A   Overcast
8:53 AM 57.0 °F 54.0 °F 89% 29.87 in 10.0 mi ESE 4.6 mph - N/A   Overcast
9:53 AM 57.2 °F 53.6 °F 88% 29.88 in 10.0 mi ESE 4.6 mph - N/A   Overcast
10:53 AM 59.0 °F 53.6 °F 82% 29.88 in 10.0 mi ESE 4.6 mph - N/A   Overcast
11:53 AM 60.8 °F 53.6 °F 77% 29.89 in 10.0 mi East 8.1 mph - N/A   Overcast
12:53 PM 60.8 °F 53.6 °F 77% 29.88 in 10.0 mi South 4.6 mph - N/A   Mostly Cloudy
1:53 PM 60.8 °F 53.6 °F 77% 29.89 in 10.0 mi SE 4.6 mph - N/A   Mostly Cloudy
2:53 PM 60.8 °F 53.6 °F 77% 29.89 in 10.0 mi SSE 5.8 mph - N/A   Clear
3:53 PM 60.8 °F 53.6 °F 77% 29.89 in 10.0 mi SSE 6.9 mph - N/A   Scattered Clouds
4:53 PM 60.8 °F 53.6 °F 77% 29.89 in 10.0 mi SE 8.1 mph - N/A   Scattered Clouds
5:53 PM 60.8 °F 53.6 °F 77% 29.90 in 10.0 mi SSE 6.9 mph - N/A   Scattered Clouds
6:53 PM 57.2 °F 53.6 °F 88% 29.90 in 10.0 mi SSE 4.6 mph - N/A   Overcast
7:53 PM 55.4 °F 53.6 °F 94% 29.91 in 10.0 mi South 5.8 mph - N/A   Overcast
8:53 PM 55.9 °F 53.1 °F 90% 29.92 in 10.0 mi SE 4.6 mph - 0.00 in   Overcast
9:53 PM 55.0 °F 54.0 °F 96% 29.92 in 4.0 mi SE 5.8 mph - 0.00 in Rain Light Rain
10:08 PM 55.0 °F 54.0 °F 96% 29.92 in 8.0 mi SSE 4.6 mph - 0.00 in Rain Light Rain
10:53 PM 55.0 °F 53.1 °F 93% 29.93 in 10.0 mi SE 3.5 mph - 0.00 in   Overcast
11:32 PM 55.0 °F 53.1 °F 93% 29.93 in 10.0 mi SE 4.6 mph - 0.00 in   Overcast
11:51 PM 55.4 °F 53.6 °F 94% 29.94 in 10.0 mi SSE 4.6 mph - 0.01 in   Overcast
11:53 PM 55.0 °F 53.1 °F 93% 29.94 in 10.0 mi SSE 3.5 mph - 0.01 in   Overcast